OBJECT AC, 62403

Orbit data source: Space-Track

You're viewing an Uncataloged Satellite

Recently launched and/or uncataloged satellites may have evolving metadata. Metadata may include but not limited to: Owner, Maufacturer, Bus, Motor, and Mission.

OBJECT AC, 62403 is a satellite in LEO that was launched on Sat, 21 Dec 2024 UTC via an FALCON 9 launch vehicle from the Air Force Western Test Range (AFWTR). Unknown objects in Earth's orbit typically refer to objects detected orbiting the Earth but have not yet been identified or cataloged. These objects could be anything from previously untracked satellites, spent rocket stages, debris from satellite collisions, or even natural meteoroids temporarily captured by Earth's gravity.

Loading next visibility...
Identifier
62403, 2024-247AC
Orbit
LEO
Country
Flag of TBDTBD
Related business
None
Manufacturer
Unknown
Mission
Operational Commercial Communications
Bus & Motor
Unknown
Mass
Unknown
Launch date (UTC)
2024-12-21 (1 year ago)
Launch vehicle
FALCON 9
Launch site
Air Force Western Test Range (AFWTR)
Object type
Unknown
Shape & HBR
Box, 0.0 m
Radar Cross Section
0.004 m², Small (<0.1 m²)

Expand to show TLE details & history
Last TLE update: 2 days ago

TLE from 2 days ago
0 OBJECT AC
1 62403U 24247AC  25345.39653330  .00028604  00000-0  94127-3 0  9991
2 62403  45.0047 232.9787 0003758 173.1544 186.9392 15.31062083 54302
Epoch: 2025-12-11T09:31Z
TLE epoch observation values (Epoch: 2025-12-11T09:31:00.477Z)
Latitude
-0.00003°
Longitude
9.87358°
Altitude
475.197 km
Speed
7.629 km/s
True Right ascension
15h 31m 54s
True Declination
0° 00' 00"
Sunlit
Object was in daylight at epoch
Visualization orbit readout
Latitude
Unknown
Longitude
Unknown
Altitude
Unknown
Speed
Unknown
Apparent Right ascension
Unknown
Apparent Declination
Unknown
Sunlit
N/A
Visualization observer readout
Local Sidereal Time
07:30:35
Azimuth
Unknown
Elevation
Unknown
Doppler factor
Unknown
Orbital elements
Apogee altitude
476.828 km
Perigee altitude
471.678 km
Semi-major axis
6,852.39 km
Eccentricity
0.00038
Inclination
45.0047°
RAAN
232.9787°
Arg. of periapsis
173.1544°
True anomaly
186.934°
Mean anomaly
186.9392°
Eccentric anomaly
186.9366°
Mean motion
3.82631 °/min
Orbital period
94.09 mins
BSTAR
0.00094127
Loading maneuver chart data...
Computing Atmospheric mass density...
Loading historical data...
Loading historical data...
Loading historical data...
Loading historical data...
Loading historical data...
Loading historical data...
Loading historical data...

Documentation

Showing up to 5 results
|